Regional Weather Roundup
Issued by NWS

Home | Current Version | Previous Version | Text Only | Print | Product List | Glossary On
Versions: 1 2 3 4 5 6 7 8 9 10 11 12 13 14 15 16 17 18 19 20 21 22 23 24 25 26 27 28 29 30 31 32 33 34 35 36 37 38 39 40 41 42 43 44 45 46 47 48 49 50
000
ASCA44 KEWX 080420
RWRMX

LATIN AMERICA AND CARIBBEAN REGIONAL WEATHER ROUNDUP
NATIONAL WEATHER SERVICE AUSTIN/SAN ANTONIO TX
1000 PM CST WED DEC 07 2016

NOTE: "FAIR" INDICATED FEW OR NO CLOUDS BELOW 12,000 FEET WITH NO
SIGNIFICANT WEATHER AND/OR OBSTRUCTIONS TO VISIBILITY.

BAJA CALIFORNIA

CITY           SKY/WX    TMP DP  RH WIND       PRES   REMARKS
LA PAZ         CLEAR     64  55  72 S7        30.04
MEXICALI       CLEAR     57  23  26 W6        30.13
S.J. DEL CABO  PTCLDY    64  55  72 SW3       30.03
TIJUANA        CLEAR     55  46  71 CALM      30.16R

NORTHWESTERN MEXICO

CITY           SKY/WX    TMP DP  RH WIND       PRES   REMARKS
CULIACAN       CLEAR     64  54  68 CALM      30.00
HERMOSILLO     PTCLDY    63  45  51 NW5       30.05
CD. JUAREZ     CLOUDY    52  43  71 CALM      30.04
LOS MOCHIS     CLEAR     64  54  68 NW6       30.02R

NORTHEASTERN MEXICO

CITY           SKY/WX    TMP DP  RH WIND       PRES   REMARKS
CHIHUAHUA      PTCLDY    54  30  40 N5        30.12
MONCLOVA         N/A    N/A N/A N/A MISG        N/A
MONTERREY      PTCLDY    59  55  88 E7        30.06R
REYNOSA          N/A    N/A N/A N/A MISG        N/A
SALTILLO       CLEAR     55  45  67 CALM      30.20R
TORREON        PTCLDY    63  39  42 CALM      30.06R
CD. VICTORIA   PTCLDY    68  59  73 NW9       30.01

WESTERN MEXICO

CITY           SKY/WX    TMP DP  RH WIND       PRES   REMARKS
AGUASCALIENTES CLEAR     57  18  21 SE6       30.29R
COLIMA           N/A    N/A N/A N/A MISG        N/A
DEL BAJIO      CLEAR     52  34  50 N7        30.33R
GUADALAJARA    CLEAR     54  39  58 CALM      30.22
MAZATLAN       CLOUDY    61  57  88 SE2       30.00R
P. VALLARTA    CLEAR     68  64  88 CALM      29.99R
URUAPAN          N/A    N/A N/A N/A MISG        N/A
ZACATECAS      PTCLDY    43  16  33 SW8       30.29R WCI  38

CENTRAL MEXICO

CITY           SKY/WX    TMP DP  RH WIND       PRES   REMARKS
CUERNAVACA       N/A    N/A N/A N/A MISG        N/A
MEXICO CITY    PTCLDY    64  41  42 SW6       30.36R
MORELIA        CLEAR     55  43  62 CALM      30.29
POZA RICA        N/A    N/A N/A N/A MISG        N/A
QUERETARO      CLEAR     54  32  43 N7        30.32S
S. LUIS POTOSI CLEAR     52  28  40 E5        30.24R
TAMPICO        PTCLDY    75  73  94 CALM      29.98R FOG
TOLUCA         CLEAR     48  39  71 CALM      30.45R

SOUTHERN MEXICO

CITY           SKY/WX    TMP DP  RH WIND       PRES   REMARKS
ACAPULCO       CLEAR     77  73  88 CALM      29.93R
B. DE HUATULCO CLEAR     75  63  64 CALM      30.00
P. ESCONDIDO     N/A    N/A N/A N/A MISG        N/A
VERACRUZ       CLEAR     77  75  94 W3        29.98R

YUCATAN PENINSULA

CITY           SKY/WX    TMP DP  RH WIND       PRES   REMARKS
CAMPECHE         N/A    N/A N/A N/A MISG        N/A
CANCUN         PTCLDY    79  75  89 SE6       30.05S
CHETUMAL         N/A    N/A N/A N/A MISG        N/A
CD. DEL CARMEN PTCLDY    82  77  83 E7        29.97  HX  91
COZUMEL        PTCLDY    75  73  94 E6        30.03R
MERIDA         PTCLDY    79  72  78 SE10      30.01R
MINATITLAN       N/A    N/A N/A N/A MISG        N/A
TAPACHULA      CLEAR     75  73  94 CALM      29.94R
TUX. GUTIERREZ PTCLDY    73  68  83 CALM      30.01R
VILLAHERMOSA   MOCLDY    77  75  94 CALM      29.98R

CENTRAL AMERICA

CITY           SKY/WX    TMP DP  RH WIND       PRES   REMARKS
MANAGUA        PTCLDY    75  68  78 CALM      29.92S

CARIBBEAN

CITY           SKY/WX    TMP DP  RH WIND       PRES   REMARKS
CURACAO        PTCLDY    82  75  78 E15       29.94S
KINGSTON       PTCLDY    81  73  78 NW7       30.00S
NASSAU           N/A     75  72  88 CALM      30.09S
SAN JUAN       PTCLDY    81  72  74 E10       30.05F
SANTO DOMINGO  PTCLDY    73  72  94 NE5       30.03S
ST. CROIX      LGT RAIN  79  73  83 NE14      30.03
ST. THOMAS     CLEAR     79  73  83 NE15      30.03

$$




USA.gov is the U.S. government's official web portal to all federal, state and local government web resources and services.